Terminal Aerodrome Forecast
Issued by NWS

Home | Current Version | Previous Version | Text Only | Print | Product List | Glossary On
Versions: 1 2 3 4 5 6 7 8 9 10 11 12 13 14 15 16 17 18 19 20 21 22 23 24 25 26 27 28 29 30 31 32 33 34 35 36
150
FTUS45 KCYS 282320
TAFAIA
TAF
KAIA 282320Z 2900/2924 02018KT P6SM VCTS BKN100CB
     FM290200 VRB05KT P6SM SCT100
     FM290900 VRB03KT 1SM BR BKN001
     FM291400 22007KT P6SM SCT003
     FM291500 17011KT P6SM SCT150=

USA.gov is the U.S. government's official web portal to all federal, state and local government web resources and services.